Flag for U.S.A. Weather past 2 weeks in Nashville, Tennessee, U.S.A.

Now
74 °F

Mostly cloudy.


Feels Like: 74 °F
Forecast: 69 / 80 °F
Wind: 3 mph from Southwest

Location: Nashville International Airport

Current Time: Jul 3, 2015 at 8:57:07 PM

Latest Report: Jul 3, 2015 at 7:53 PM


Visibility: 10 mi

Pressure: 29.90 "Hg

Humidity: 82%

Dew point: 68 °F

Location of NashvilleLocation

Historic Weather in Nashville — Graph

°F

Nashville temperature yesterday

Maximum temperature yesterday: 83 °F (at 1:53 PM)
Minimum temperature yesterday: 69 °F (at 12:53 AM)
Average temperature yesterday: 75 °F

Past Weeks' High & Low Weather Summary

 TemperatureHumidityPressure
High94 °F (Jun 25, 4:53 PM)100% (Jun 20, 4:53 AM)30.16 "Hg (Jun 20, 4:53 AM)
Low61 °F (Jun 28, 4:53 AM)34% (Jun 28, 2:53 PM)29.82 "Hg (Jun 20, 2:53 AM)
Average78 °F80%29.96 "Hg
* Reported Jun 18 6:53 PM — Jul 3 6:53 PM, Nashville, Weather by CustomWeather, © 2015

Note: Actual official high and low records may vary slightly from our data, if they occured in-between our weather recording intervals... More about our weather records

Advertising

Nashville weather history for previous 24 hours

 ConditionsComfort  
Time TempWeatherWind HumidityBarometerVisibility
6:53 PM
Fri, Jul 3
75 °FPartly sunny.5 mph79%29.89 "Hg10 mi
5:53 PM75 °FCloudy.7 mph82%29.89 "Hg10 mi
4:53 PM77 °FCloudy.13 mph77%29.87 "Hg10 mi
3:53 PM76 °FMostly cloudy.12 mph82%29.88 "Hg10 mi
2:53 PM80 °FCloudy.8 mph79%29.88 "Hg10 mi
1:53 PM83 °FBroken clouds.7 mph72%29.89 "Hg10 mi
12:53 PM82 °FBroken clouds.9 mph72%29.89 "Hg10 mi
11:53 AM82 °FPartly sunny.5 mph70%29.89 "Hg10 mi
10:53 AM77 °FOvercast.7 mph79%29.90 "Hg10 mi
9:53 AM76 °FPartly sunny.6 mph77%29.89 "Hg10 mi
8:53 AM76 °FBroken clouds.6 mph80%29.89 "Hg10 mi
7:53 AM74 °FBroken clouds.5 mph88%29.86 "Hg10 mi
6:53 AM72 °FBroken clouds.7 mph97%29.85 "Hg10 mi
5:53 AM72 °FOvercast.3 mph100%29.85 "Hg10 mi
4:53 AM73 °FMostly cloudy.5 mph97%29.85 "Hg10 mi
4:00 AM73 °FMostly cloudy.6 mph100%29.85 "Hg10 mi
2:53 AM73 °FOvercast.No wind100%29.83 "Hg10 mi
1:53 AM74 °FOvercast.6 mph97%29.84 "Hg10 mi
12:53 AM74 °FMostly cloudy.6 mph97%29.87 "Hg10 mi
12:01 AM73 °FThunderstorms. Fog.6 mph100%29.89 "Hg6 mi
10:53 PM
Thu, Jul 2
76 °FOvercast.3 mph88%29.87 "Hg10 mi
9:53 PM76 °FOvercast.5 mph88%29.88 "Hg10 mi
8:53 PM77 °FPassing clouds.7 mph88%29.84 "Hg10 mi
Weather by CustomWeather, © 2015

See weather overviewHow to use our weather pages